FW1086 Weather Reports


time (UTC)temp
C
wind
direction
speed
KPH
gust
KPH
rain 1hr
cm
rain 24hr
cm
rain mn
cm
humidity
%
barometer
mb
20190421162021 15 159 0.0 4.8 0.00 0.18 0.10 85 1017.8
20190421161020 15 159 0.0 6.4 0.00 0.18 0.10 85 1017.5
20190421160018 15 154 0.0 6.4 0.00 0.18 0.10 85 1017.6
20190421155020 15 117 0.0 6.4 0.00 0.18 0.10 84 1017.7
20190421154020 15 116 0.0 9.7 0.00 0.18 0.10 84 1017.9
20190421153020 15 112 0.0 9.7 0.00 0.18 0.10 84 1017.4
20190421152020 15 168 0.0 8.0 0.00 0.18 0.10 84 1017.5
20190421151020 15 168 0.0 9.7 0.03 0.18 0.10 84 1017.2
20190421150020 15 149 1.6 9.7 0.03 0.18 0.10 84 1017.2
20190421145020 16 136 0.0 8.0 0.03 0.18 0.10 86 1017.0
20190421144019 15 116 0.0 8.0 0.03 0.18 0.10 88 1017.0
20190421143020 14 91 0.0 3.2 0.03 0.30 0.10 89 1017.3
20190421142020 14 91 0.0 3.2 0.03 0.41 0.10 89 1017.3
20190421141019 14 90 0.0 3.2 0.00 0.41 0.08 89 1017.6
20190421140020 14 90 0.0 3.2 0.00 0.43 0.08 89 1017.1
20190421135019 13 88 0.0 6.4 0.00 0.43 0.08 90 1017.0
20190421134021 13 182 0.0 6.4 0.00 0.43 0.08 90 1016.9
20190421133019 13 196 0.0 1.6 0.00 0.43 0.08 90 1016.7
20190421132020 13 196 0.0 1.6 0.00 0.43 0.08 91 1016.4
20190421131021 13 196 0.0 3.2 0.00 0.43 0.08 91 1016.3
20190421130020 13 195 0.0 8.0 0.00 0.43 0.08 91 1016.4
20190421125020 13 206 0.0 8.0 0.00 0.43 0.08 90 1016.1
20190421124020 13 217 0.0 3.2 0.00 0.43 0.08 91 1016.3
20190421123020 13 217 0.0 3.2 0.00 0.43 0.08 91 1016.1
20190421122019 13 217 0.0 3.2 0.00 0.43 0.08 92 1016.2
20190421121020 12 217 0.0 1.6 0.00 0.43 0.08 92 1016.3
20190421120019 12 217 0.0 6.4 0.00 0.43 0.08 91 1016.4
20190421115020 12 233 0.0 8.0 0.00 0.43 0.08 90 1016.3
20190421114017 12 196 0.0 9.7 0.00 0.43 0.08 91 1015.9
20190421113019 12 149 0.0 9.7 0.00 0.43 0.08 90 1015.4
20190421112020 12 160 0.0 9.7 0.00 0.43 0.08 90 1015.3
20190421111020 12 172 0.0 6.4 0.00 0.43 0.08 90 1015.6
20190421110020 12 161 0.0 9.7 0.00 0.43 0.08 89 1015.1
20190421105020 13 159 1.6 9.7 0.00 0.43 0.08 90 1015.2
20190421104019 13 139 0.0 11.3 0.00 0.46 0.08 90 1015.1
20190421103019 13 149 0.0 11.3 0.00 0.46 0.08 90 1015.2
20190421102020 13 196 0.0 6.4 0.00 0.46 0.08 90 1015.1
20190421101019 13 263 0.0 3.2 0.00 0.46 0.08 90 1015.5
20190421100021 14 264 0.0 3.2 0.00 0.46 0.08 90 1015.3
20190421095025 14 269 0.0 3.2 0.00 0.46 0.08 90 1015.3
20190421094020 14 269 0.0 3.2 0.00 0.46 0.08 90 1015.1
20190421093019 14 269 0.0 3.2 0.00 0.46 0.08 90 1014.7
20190421092020 15 269 0.0 3.2 0.00 0.46 0.08 90 1014.5
20190421091019 15 269 0.0 4.8 0.00 0.46 0.08 90 1014.6
20190421090020 15 269 0.0 4.8 0.00 0.46 0.08 90 1014.6
20190421085020 15 269 0.0 9.7 0.00 0.46 0.08 90 1014.5
20190421084020 15 247 1.6 9.7 0.00 0.46 0.08 90 1014.5
20190421083020 15 206 0.0 11.3 0.00 0.46 0.08 90 1014.8
20190421082019 15 254 0.0 11.3 0.00 0.46 0.08 90 1014.8
20190421081019 15 0.0 4.8 0.00 0.46 0.08 90 1014.3
20190421080020 15 240 0.0 4.8 0.00 0.46 0.08 90 1014.1
20190421075021 15 0.0 6.4 0.00 0.46 0.08 91 1014.1
20190421073020 15 265 1.6 11.3 0.03 0.46 0.08 91 1014.2
20190421072019 15 249 0.0 9.7 0.03 0.46 0.08 92 1014.4
20190421071020 15 234 0.0 8.0 0.05 0.46 0.08 92 1014.4
20190421070019 14 235 0.0 6.4 0.08 0.46 0.08 92 1013.8
20190421065020 14 236 0.0 6.4 0.08 0.46 0.08 91 1013.9
20190421064019 13 236 0.0 8.0 0.08 0.46 0.08 91 1013.9
20190421063019 13 232 1.6 8.0 0.05 0.43 0.05 91 1014.2
20190421062021 13 212 0.0 8.0 0.05 0.43 0.05 91 1013.7
20190421061019 13 195 0.0 8.0 0.03 0.41 0.03 91 1013.7
20190421060019 12 158 0.0 9.7 0.00 0.38 0.00 90 1013.3
20190421055020 13 125 0.0 9.7 0.00 0.38 0.00 90 1013.1
20190421054019 13 161 0.0 6.4 0.00 0.38 0.00 91 1013.4
20190421053019 12 161 0.0 8.0 0.00 0.38 0.00 91 1013.5
20190421052020 12 151 0.0 8.0 0.00 0.38 0.00 90 1013.9
20190421051020 12 133 0.0 8.0 0.00 0.38 0.00 89 1014.0
20190421050019 13 149 0.0 6.4 0.00 0.38 0.00 89 1013.6
20190421045019 13 146 0.0 9.7 0.00 0.38 0.00 88 1014.0
20190421044019 14 150 1.6 9.7 0.00 0.53 0.00 89 1013.9
20190421043019 15 154 1.6 9.7 0.00 0.58 0.00 90 1013.8
20190421042019 15 168 0.0 3.2 0.00 0.58 0.00 90 1013.9
20190421041019 15 163 0.0 3.2 0.00 0.58 0.00 90 1013.8
20190421040019 14 139 0.0 3.2 0.00 0.58 0.58 89 1014.2
20190421035018 14 139 0.0 3.2 0.00 0.58 0.58 88 1014.4
20190421034019 15 138 0.0 8.0 0.00 0.58 0.58 87 1014.3
20190421033018 16 164 1.6 8.0 0.00 0.58 0.58 87 1014.4
20190421032018 16 244 0.0 11.3 0.00 0.58 0.58 90 1014.6
20190421031018 16 204 3.2 11.3 0.00 0.58 0.58 90 1014.3
20190421030018 16 229 0.0 11.3 0.00 0.58 0.58 89 1014.6
20190421025018 16 225 0.0 11.3 0.00 0.58 0.58 89 1014.1
20190421024018 16 251 0.0 11.3 0.00 0.58 0.58 89 1014.0
20190421023018 16 212 1.6 12.9 0.00 0.58 0.58 90 1014.2
20190421022018 16 205 3.2 12.9 0.00 0.58 0.58 90 1013.8
20190421021018 16 203 3.2 12.9 0.00 0.58 0.58 90 1014.1
20190421020040 15 209 1.6 11.3 0.00 0.58 0.58 90 1013.9
20190421015018 15 176 0.0 9.7 0.00 0.58 0.58 90 1013.7
20190421014018 15 144 0.0 8.0 0.00 0.58 0.58 87 1013.8
20190421013018 16 157 1.6 12.9 0.00 0.58 0.58 88 1013.5
20190421012018 17 183 3.2 12.9 0.00 0.58 0.58 89 1013.7
20190421011018 17 180 4.8 19.3 0.00 0.58 0.58 89 1013.7
20190421010018 17 191 4.8 19.3 0.00 0.58 0.58 89 1013.7
20190421005018 17 192 3.2 14.5 0.00 0.58 0.58 89 1013.9
20190421004018 17 201 1.6 9.7 0.00 0.58 0.58 88 1013.6
20190421003019 17 217 1.6 9.7 0.00 0.58 0.58 88 1013.7
20190421002018 17 207 1.6 11.3 0.03 0.58 0.58 88 1013.8
20190421001018 17 200 1.6 16.1 0.03 0.58 0.58 88 1013.8
20190421000018 17 199 1.6 16.1 0.03 0.58 0.58 88 1013.8
20190420235018 17 213 3.2 16.1 0.03 0.58 0.58 88 1013.6
20190420234015 17 201 4.8 16.1 0.03 0.58 0.58 87 1013.7
20190420233018 17 212 4.8 14.5 0.03 0.58 0.58 87 1013.6
20190420232018 17 209 4.8 19.3 0.03 0.56 0.56 87 1013.5
20190420231018 17 202 6.4 19.3 0.03 0.56 0.56 87 1013.1
20190420230018 18 191 4.8 14.5 0.05 0.56 0.56 87 1013.0
20190420225018 18 203 3.2 17.7 0.05 0.56 0.56 87 1013.2
20190420224018 18 203 4.8 29.0 0.05 0.56 0.56 86 1012.9
20190420223018 18 230 6.4 29.0 0.05 0.56 0.56 86 1013.0
20190420222018 18 219 6.4 24.1 0.03 0.53 0.53 85 1013.2
20190420221018 18 217 6.4 20.9 0.03 0.53 0.53 84 1013.3
20190420220018 19 227 8.0 24.1 0.00 0.51 0.51 82 1013.0
20190420215018 19 217 8.0 29.0 0.00 0.51 0.51 82 1012.8
20190420214018 19 227 8.0 29.0 0.00 0.51 0.51 82 1012.9
20190420213018 19 225 8.0 22.5 0.00 0.51 0.51 82 1012.6
20190420212019 19 220 8.0 22.5 0.00 0.51 0.51 82 1012.4
20190420211018 19 206 4.8 12.9 0.00 0.51 0.51 82 1012.1
20190420210018 19 211 3.2 20.9 0.00 0.51 0.51 81 1011.9
20190420205018 20 213 4.8 20.9 0.00 0.51 0.51 81 1011.6
20190420204018 20 210 4.8 20.9 0.00 0.51 0.51 80 1011.5
20190420203018 20 218 8.0 22.5 0.00 0.51 0.51 80 1011.4
20190420202018 20 205 9.7 25.7 0.00 0.51 0.51 79 1011.2
20190420201018 21 229 8.0 25.7 0.00 0.51 0.51 78 1011.6
20190420200018 21 210 4.8 24.1 0.00 0.51 0.51 78 1010.8
20190420195018 21 237 9.7 35.4 0.00 0.51 0.51 77 1010.8
20190420194018 21 239 11.3 35.4 0.00 0.51 0.51 77 1011.0
20190420193018 21 223 9.7 32.2 0.00 0.51 0.51 78 1011.2
20190420192018 21 212 11.3 32.2 0.00 0.51 0.51 78 1011.2
20190420191018 21 224 9.7 29.0 0.00 0.51 0.51 76 1011.2
20190420190020 21 205 9.7 37.0 0.00 0.51 0.51 75 1011.3
20190420185020 22 211 12.9 37.0 0.00 0.51 0.51 72 1011.3
20190420184020 22 240 11.3 35.4 0.00 0.51 0.51 74 1011.3
20190420183020 21 213 9.7 30.6 0.00 0.51 0.51 76 1011.7
20190420182020 22 220 9.7 37.0 0.00 0.51 0.51 76 1011.7
20190420181021 22 219 11.3 37.0 0.00 0.51 0.51 77 1011.6
20190420180020 22 225 12.9 35.4 0.00 0.51 0.51 77 1011.9
20190420175020 21 223 9.7 35.4 0.00 0.51 0.51 77 1012.1
20190420174020 21 217 8.0 30.6 0.00 0.51 0.51 78 1012.1
20190420173020 21 233 9.7 30.6 0.00 0.51 0.51 78 1012.0
20190420172020 21 220 9.7 29.0 0.00 0.51 0.51 78 1011.9
20190420171020 21 199 9.7 29.0 0.00 0.51 0.51 78 1012.2
20190420170020 21 220 9.7 24.1 0.00 0.51 0.51 78 1012.1
20190420165020 21 206 9.7 25.7 0.00 0.51 0.51 78 1012.1
20190420164020 21 224 9.7 33.8 0.00 0.51 0.51 79 1012.0
20190420163020 21 207 9.7 33.8 0.00 0.51 0.51 80 1012.1